Voltar ao catálogo

STARLINK-31131

AtivoComunicaçõesVLEO
NORAD 58673·PAYLOAD·🇺🇸 United States

Lançado Dec 29, 2023 de Cape Canaveral Space Force Station

Loading…

Próximas Passagens (próximas 24 horas)

TLE

AtualizadoSource: CelesTrak SupGP

Época: Sep 15, 2026, 01:49 UTC

1 58673C 23211G   26258.07618056  .00018309  00000+0  66316-3 0  2587
2 58673  42.9999  84.9271 0001512 274.0137  29.7404 15.27569340    16

Acompanhe STARLINK-31131 em tempo real com AllMySat

Download on the App Store